Location: Hainholz
(52.4057°N, 9.7098°E)
Time: 21:13:17
(UTC+00:00)

Daily predictions for brighter satellites

Satellite Brightness Start Highest point End
(mag) Time Altitude Azimuth Time Altitude Azimuth Time Altitude Azimuth
BREEZE-M DEB (TANK) 3.3 15:39:42 10° WSW 15:42:07 51° SSE 15:47:45 10° E
ARIANE 5 R/B 3.2 15:41:54 10° ESE 15:46:22 31° ENE 15:50:53 10° N
Cosmos 2084 Rocket 3.4 15:42:45 10° NW 15:46:58 70° NE 15:51:11 10° SE
Intercosmos 24 3.8 15:43:55 10° N 15:47:48 57° ENE 15:51:18 10° SSE
NOSS 3-2 (A) 3.4 15:43:20 10° SSW 15:48:20 61° SE 15:54:24 10° NE
Cosmos 1782 3.3 15:46:26 10° SSE 15:49:43 34° E 15:53:01 10° NNE
SL-08 ROCKET BODY 4.5 15:44:14 10° N 15:50:07 59° ENE 15:56:04 10° SSE
NOSS 3-2 (C) 4.2 15:45:58 10° S 15:50:19 29° ESE 15:55:20 10° ENE
Cosmos 1656 4.0 15:45:16 10° S 15:50:41 51° ESE 15:56:11 10° NE
Cosmos 1758 Rocket 3.6 15:46:42 10° N 15:50:59 57° ENE 15:55:11 10° SSE
Cosmos 2034 Rocket 4.4 15:45:03 10° SSW 15:51:22 71° WNW 15:57:46 10° N
Cosmos 2208 Rocket 4.0 15:47:45 10° NNW 15:52:57 86° ENE 15:58:09 10° SSE
Cosmos 2098 Rocket 3.7 15:51:10 10° SSE 15:55:10 39° E 15:59:49 10° NNE
NOSS 2-2 (E) 3.4 15:52:43 10° SSW 15:55:49 39° SE 15:58:40 10° ENE
Cosmos 724 4.4 15:50:24 10° NW 15:56:31 90° SW 16:02:27 10° SE
Meteor 1-20 Rocket 4.4 15:52:20 10° N 15:57:38 46° ENE 16:02:52 10° SE
CZ-4C R/B 2.9 15:52:40 10° NW 15:59:19 82° NE 16:07:44 10° SE
Cosmos 2266 Rocket 4.2 15:54:40 10° N 16:00:37 47° ENE 16:06:26 10° SE
Cosmos 405 Rocket 2.6 15:59:13 10° NNW 16:02:28 69° W 16:05:40 10° S
CBERS-1 4.0 16:00:23 10° SSE 16:05:30 81° ENE 16:10:39 10° NNW
SMAP 3.2 16:02:26 10° SE 16:06:56 50° ENE 16:11:27 10° N
Cosmos 2297 Rocket 2.3 16:02:52 10° NNW 16:08:35 84° WSW 16:14:15 10° SSE
Landsat 7 4.1 16:07:22 10° SE 16:11:46 44° ENE 16:16:12 10° N
[s.n.66845] 3.6 16:11:19 10° N 16:12:42 13° NE 16:12:44 13° NE
[s.n.66847] 3.6 16:11:45 10° N 16:13:09 13° NE 16:13:11 13° NE
Cosmos 1626 Rocket 3.7 16:08:57 10° NNW 16:13:18 78° W 16:17:35 10° S
[s.n.66846] 3.6 16:12:10 10° N 16:13:35 13° NE 16:13:36 13° NE
[s.n.66843] 3.6 16:12:42 10° N 16:14:08 13° NE 16:14:08 13° NE
Meteor 1-28 Rocket 3.1 16:10:55 10° NNE 16:14:13 51° E 16:17:28 10° S
[s.n.66844] 3.6 16:13:08 10° N 16:14:35 13° NE 16:14:35 13° NE
[s.n.66842] 3.5 16:13:39 10° N 16:15:05 13° NE 16:15:05 13° NE
[s.n.66841] 3.5 16:14:05 10° N 16:15:33 14° NE 16:15:33 14° NE
JB-3 4.5 16:11:58 10° N 16:15:36 66° WNW 16:19:11 10° SSW
[s.n.66840] 3.5 16:14:34 10° N 16:16:02 14° NE 16:16:02 14° NE
[s.n.66838] 3.5 16:15:02 10° N 16:16:31 14° NE 16:16:31 14° NE
[s.n.66839] 3.5 16:15:32 10° N 16:17:01 14° NE 16:17:01 14° NE
NOSS 2-2 (C) 3.1 16:14:13 10° WSW 16:17:16 52° NW 16:19:48 13° NE
[s.n.66837] 3.5 16:15:58 10° N 16:17:27 14° NE 16:17:27 14° NE
[s.n.66836] 3.5 16:16:28 10° N 16:17:57 14° NE 16:17:57 14° NE
[s.n.66835] 3.5 16:16:57 10° N 16:18:27 14° NE 16:18:27 14° NE
[s.n.66834] 3.5 16:17:25 10° N 16:18:56 14° NE 16:18:56 14° NE
[s.n.66833] 3.5 16:17:52 10° N 16:19:22 15° NE 16:19:22 15° NE
[s.n.66832] 3.5 16:18:23 10° N 16:19:54 15° NE 16:19:54 15° NE
[s.n.66831] 3.5 16:18:48 10° N 16:20:19 15° NE 16:20:19 15° NE
[s.n.66830] 3.4 16:19:13 10° N 16:20:45 15° NE 16:20:45 15° NE
[s.n.66828] 3.4 16:19:39 10° N 16:21:10 15° NE 16:21:10 15° NE
[s.n.66829] 3.4 16:20:10 10° N 16:21:42 15° NE 16:21:42 15° NE
[s.n.66827] 3.4 16:20:41 10° N 16:22:13 15° NE 16:22:13 15° NE
[s.n.66826] 3.4 16:21:11 10° N 16:22:43 15° NE 16:22:43 15° NE
Cosmos 1315 Rocket 3.9 16:19:26 10° SW 16:23:05 42° WNW 16:26:46 10° N
[s.n.66825] 3.4 16:21:36 10° N 16:23:09 16° NE 16:23:09 16° NE
[s.n.66824] 3.4 16:22:07 10° N 16:23:40 16° NE 16:23:40 16° NE
[s.n.66823] 3.4 16:22:37 10° N 16:24:10 16° NE 16:24:10 16° NE
Cosmos 1606 Rocket 4.3 16:20:34 10° SSE 16:24:28 31° E 16:28:23 10° NNE
[s.n.66822] 3.4 16:23:06 10° N 16:24:39 16° NE 16:24:39 16° NE
ATLAS CENTAUR R/B 3.5 16:22:22 10° WNW 16:24:58 23° WSW 16:27:31 10° S
[s.n.66821] 3.4 16:23:33 10° N 16:25:07 16° NE 16:25:07 16° NE
Thor Agena Rocket 3.6 16:22:44 10° SSE 16:27:56 90° WSW 16:33:07 10° NNW
Cosmos 2219 3.8 16:23:06 10° NNW 16:28:22 36° NE 16:33:39 10° ESE
Cosmos 1503 Rocket 4.2 16:23:47 10° S 16:28:51 51° ESE 16:33:39 11° NE
CENTAUR R/B 3.1 16:24:15 10° WSW 16:30:12 54° NNW 16:36:56 13° NE
USA 290 3.6 16:29:15 10° NW 16:32:24 44° WSW 16:35:30 10° S
SL-16 R/B 2.6 16:26:18 10° NNE 16:32:34 88° WNW 16:38:46 10° SSW
Cosmos 1484 Rocket 3.7 16:29:15 10° S 16:32:38 45° W 16:36:02 10° NNW
GEOS 3 Rocket 4.1 16:28:50 14° NE 16:33:15 49° SE 16:38:27 10° SSW
Cosmos 1544 Rocket 3.7 16:29:11 10° SSW 16:33:36 80° WNW 16:38:04 10° N
AQUARIUS 4.2 16:30:38 10° SE 16:34:54 52° ENE 16:39:13 10° N
Cosmos 1844 Rocket 4.0 16:31:07 10° NNW 16:35:17 20° NNE 16:37:19 17° ENE
Lacrosse 5 rocket 1.6 16:31:53 10° W 16:35:31 46° NNW 16:37:41 21° NE
Cosmos 1980 Rocket 3.4 16:31:43 10° SSE 16:35:53 21° ESE 16:37:57 18° ENE
Meteor 1-25 Rocket 4.2 16:32:27 10° N 16:38:17 73° ENE 16:44:03 10° SSE
Meteor 1-5 Rocket 4.2 16:33:09 10° N 16:38:22 50° ENE 16:43:39 10° SSE
Cosmos 1354 Rocket 4.4 16:33:31 10° S 16:38:29 45° ESE 16:42:34 15° NE
Lacrosse 4 Rocket 3.1 16:37:15 10° W 16:40:33 23° NW 16:43:48 10° NNE
BREEZE M DEB (TANK) 3.7 16:38:55 10° SSW 16:40:34 17° SSE 16:41:17 15° SE
CORIOLIS 4.3 16:36:50 10° SSE 16:42:11 80° WSW 16:47:34 10° NNW
IRIDIUM 104 4.3 16:37:46 10° N 16:43:02 84° E 16:48:15 10° S
Cosmos 2263 Rocket 2.3 16:37:57 10° NNW 16:43:33 56° NE 16:49:08 10° SE
Cosmos 2228 4.4 16:40:36 10° SW 16:44:34 38° WNW 16:48:33 10° N
Cosmos 1777 Rocket 3.9 16:39:46 10° SSW 16:45:00 78° ESE 16:49:52 12° NNE
Cosmos 1726 Rocket 4.1 16:44:00 10° SSE 16:48:20 41° E 16:51:54 14° NNE
CZ-2D R/B 2.6 16:45:41 10° SSE 16:48:49 81° ENE 16:51:59 10° NNW
Okean 1-7 Rocket 3.5 16:45:55 10° NNW 16:50:21 86° WSW 16:54:43 10° S
USA 238 DEB 4.4 16:45:50 10° S 16:50:59 29° ESE 16:53:47 21° ENE
USA 238 4.4 16:45:58 10° S 16:51:06 29° ESE 16:53:52 21° ENE
Cosmos 44 Rocket 4.5 16:47:26 10° NW 16:51:47 27° NNE 16:53:32 22° NE
IRIDIUM 114 4.4 16:46:55 10° N 16:52:11 83° W 16:57:24 10° S
Cosmos 1602 Rocket 4.2 16:47:54 10° NNW 16:52:14 59° W 16:56:30 10° S
NOSS 3 (A) 4.0 16:50:07 10° NW 16:52:18 55° NE 16:52:32 51° ENE
ERS-1 4.4 16:49:25 10° SSE 16:54:26 83° ENE 16:59:25 10° NNW
Cosmos 1461 2.6 16:52:39 10° SW 16:56:33 78° SE 16:58:30 29° NE
USA 215 3.4 16:53:50 21° ENE 16:58:19 60° N 17:04:46 10° WNW
Cosmos 1933 3.1 16:54:34 10° S 16:58:22 69° E 17:01:21 16° NNE
Cosmos 1943 Rocket 4.3 16:57:36 10° NNW 16:59:02 11° N 17:00:28 10° NNE
Cosmos 2227 Rocket 2.3 16:54:20 10° NNW 17:00:01 78° WSW 17:05:39 10° SSE
SKYMED 2 4.2 16:58:49 28° ENE 17:00:06 33° E 17:04:02 10° SSE
IRS-1C 4.3 16:54:51 10° SSE 17:00:10 78° WSW 17:05:32 10° NNW
YAOGAN 1 2.9 16:56:57 10° SE 17:00:54 38° ENE 17:04:52 10° N
Cosmos-2242 4.2 16:57:40 10° SE 17:00:13 23° ESE 17:00:13 23° ESE
Cosmos 1743 4.5 16:59:53 10° NNW 17:02:43 28° W 17:05:32 10° SSW
NOSS 2-3 (E) 3.9 16:59:48 10° S 17:03:06 33° SE 17:03:38 31° ESE
NOSS 2-3 (D) 4.0 17:00:30 10° S 17:03:47 31° ESE 17:04:14 30° ESE
Cosmos 1486 Rocket 4.4 16:59:39 10° SW 17:04:50 63° WNW 17:09:39 12° NNE
SJ-12 4.0 17:01:14 10° S 17:04:59 70° WSW 17:08:47 10° NNW
Cosmos 2369 Rocket 4.2 17:01:48 10° WNW 17:05:33 18° NNW 17:09:21 10° NNE
Cosmos 2151 4.2 17:02:21 10° NNW 17:06:18 43° W 17:10:14 10° SSW
Cosmos 1655 Rocket 3.9 17:05:58 10° N 17:12:15 80° E 17:18:28 10° SSE
Meteor 2-10 4.1 17:08:09 10° N 17:13:27 61° ENE 17:18:55 10° SSE
Cosmos 1697 Rocket 2.6 17:10:10 10° SSW 17:15:46 77° ESE 17:19:15 24° NE
Cosmos 990 Rocket 3.8 17:10:58 10° SSW 17:16:04 73° ESE 17:19:09 25° NNE
Cosmos 1953 Rocket 3.4 17:11:39 10° N 17:16:08 78° E 17:20:34 10° SSE
CZ-4 R/B 4.2 17:12:27 10° SSE 17:16:23 78° ENE 17:20:22 10° NNW
MOS 1 Rocket 3.7 17:12:50 10° S 17:17:47 73° WSW 17:23:02 10° NNW
Aureole 1 Rocket 3.8 17:14:12 10° S 17:18:29 40° ESE 17:19:37 35° ENE
Cosmos 2278 Rocket 4.3 17:16:46 10° NNW 17:18:44 12° N 17:19:59 11° NNE
NOSS 2-2 (D) 4.1 17:22:01 10° W 17:24:45 28° NNW 17:25:11 27° NNW
ARIANE 5 R/B 3.5 17:20:19 10° S 17:25:14 49° W 17:30:14 10° NNW
Cosmos 1825 Rocket 4.3 17:21:09 10° NNW 17:25:25 53° W 17:29:36 10° S
Resurs 01 Rocket 3.6 17:29:46 15° N 17:29:46 15° N 17:30:37 10° N
Cosmos 1680 Rocket 3.8 17:26:41 10° NNW 17:31:39 42° NE 17:31:45 42° ENE
NOAA 6 4.0 17:27:35 10° SE 17:32:35 58° ENE 17:37:35 10° N
USA 81 3.9 17:27:51 10° N 17:33:10 79° E 17:38:26 10° S
CZ-2D R/B 3.4 17:32:13 10° SSE 17:36:24 85° WSW 17:40:35 10° NNW
Radarsat Rocket 4.5 17:30:01 10° SSE 17:38:05 80° ENE 17:45:15 10° NNW
IRAS Rocket 4.1 17:33:28 10° SSE 17:38:56 77° ENE 17:44:25 10° NNW
NOSS 3-2 (A) 4.1 17:34:11 10° W 17:39:23 44° NNW 17:42:25 27° NNE
Gbstr 26 Del rocket 3.1 17:35:56 10° SW 17:39:37 49° SSE 17:39:37 49° SSE
Cosmos 1844 4.3 17:35:04 10° NNW 17:39:50 36° NE 17:39:50 36° NE
Meteor 2-2 Rocket 4.2 17:34:53 10° S 17:40:21 55° E 17:41:52 42° NE
NOSS 3-2 (C) 3.4 17:35:17 10° WSW 17:40:32 69° NW 17:43:16 34° NE
SPOT 1/Viking Rocket 3.8 17:36:59 10° S 17:42:10 69° WSW 17:47:23 10° NNW
Cosmos 1076 Rocket 4.2 17:39:17 10° NNW 17:43:30 53° W 17:47:41 10° S
PSLV R/B 3.2 17:43:07 52° SSE 17:44:04 84° ENE 17:48:09 10° NNW
[s.n.66845] 4.4 17:43:14 10° NW 17:43:44 14° NW 17:43:44 14° NW
[s.n.66847] 4.4 17:43:41 10° NW 17:44:11 14° NW 17:44:11 14° NW
[s.n.66846] 4.4 17:44:07 10° NW 17:44:36 14° NW 17:44:36 14° NW
SJ-7 4.2 17:47:21 74° NW 17:47:21 74° NW 17:50:53 10° NNW
Cosmos 2082 3.6 17:41:35 10° NNW 17:47:20 84° ENE 17:50:42 26° SE
[s.n.66843] 4.4 17:44:40 10° NW 17:45:08 14° NW 17:45:08 14° NW
CZ-4C R/B 4.5 17:41:07 10° WNW 17:47:29 36° WSW 17:55:03 10° S
SL-19 R/B 4.1 17:42:18 10° SSE 17:47:44 89° ENE 17:53:30 10° NNW
COSMO-SKYMED 1 3.3 17:49:12 37° SSE 17:49:12 37° SSE 17:51:50 10° S
[s.n.66844] 4.5 17:45:07 10° NW 17:45:35 14° NW 17:45:35 14° NW
[s.n.66842] 4.5 17:45:39 10° NW 17:46:06 14° NW 17:46:06 14° NW
[s.n.66841] 4.5 17:46:07 10° NW 17:46:33 13° NW 17:46:33 13° NW
[s.n.66840] 4.5 17:46:37 10° NW 17:47:03 13° NW 17:47:03 13° NW
Cosmos 2058 Rocket 2.9 17:46:16 10° S 17:50:44 79° E 17:50:44 79° E
Cosmos 2227 4.4 17:50:34 10° NNW 17:55:43 51° NE 17:55:43 51° NE
Meteor 2-11 Rocket 4.3 17:53:23 10° N 17:59:34 71° ENE 18:05:42 10° SSE
Nadezhda 2 Rocket 4.3 17:55:07 10° N 18:01:17 90° WSW 18:07:24 10° S
Meteor 1-26 Rocket 3.9 17:59:18 10° S 18:04:42 83° E 18:05:35 63° NNE
GEOS 3 Rocket 4.2 18:09:54 42° N 18:11:15 52° NW 18:16:27 10° WSW
Cosmos 1553 Rocket 3.8 18:05:51 10° S 18:12:02 81° E 18:14:51 35° NNE
Cosmos 2219 3.8 18:07:12 10° NW 18:12:49 57° WSW 18:17:57 12° S
Lacrosse 5 rocket 3.0 18:09:29 10° WNW 18:11:16 24° NW 18:11:16 24° NW
Resurs 1-3 4.5 18:08:54 10° S 18:13:03 47° W 18:17:14 10° NNW
Cosmos 1980 Rocket 2.2 18:13:35 10° SW 18:19:15 80° WNW 18:19:44 73° N
Cosmos 1844 Rocket 3.1 18:14:38 10° NNW 18:18:59 50° N 18:18:59 50° N
USA 281 4.1 18:22:44 33° NNE 18:22:44 33° NNE 18:27:07 10° NNW
CENTAUR R/B 3.8 18:16:09 10° WNW 18:22:24 36° N 18:24:02 33° NNE
Cosmos 1745 Rocket 4.0 18:19:27 10° N 18:24:47 65° NNE 18:24:47 65° NNE
Cosmos 2263 Rocket 3.8 18:22:14 10° NW 18:27:13 32° WSW 18:32:12 10° SSW
Cosmos 1898 Rocket 3.9 18:26:08 10° SSW 18:30:11 55° SW 18:30:11 55° SW
Cosmos 2369 4.2 18:26:28 10° SSW 18:30:42 52° SSW 18:30:42 52° SSW
Cosmos 44 Rocket 4.3 18:28:48 10° NW 18:32:08 41° NNW 18:32:08 41° NNW
YAOGAN 1 4.5 18:33:10 10° SSW 18:36:51 28° W 18:40:33 10° NW
USA 215 3.1 18:41:10 78° NNE 18:41:10 78° NNE 18:47:40 10° WNW
USA 238 DEB 3.5 18:34:58 10° SW 18:41:13 80° NW 18:41:13 80° NW
USA 238 3.5 18:35:05 10° SW 18:41:20 80° NW 18:41:20 80° NW
Cosmos 1943 Rocket 4.4 18:41:35 10° NNW 18:42:28 13° N 18:42:28 13° N
Cosmos 1697 Rocket 4.2 18:55:30 10° W 19:00:19 28° NW 19:00:59 28° NNW
CENTAUR R/B 4.4 20:07:37 10° NW 20:11:08 29° NNW 20:11:08 29° NNW
